QPF
0.00 0.00 0.01 0.01 0.01 0.00 0.00 0.00 0.00 0.01 0.01 0.01 0.00 0.00 0.00 0.00 0.00 0.00 0.00 0.00 0.00 0.00 0.00 0.00 0.01 0.01 0.00 0.00 0.00 0.00 0.00 0.00 0.00 0.00 0.00 0.00 0.00 0.00 0.00 0.00 0.00 0.00 0.00
0.00 0.00 0.00 0.00 0.01 0.01 0.01 0.01 0.01 0.00 0.00 0.00 0.00 0.00 0.00 0.00 0.00 0.00 0.00 0.00 0.00 0.01 0.01 0.00 0.05 0.06 0.02 0.00 0.00 0.00 0.00 0.00 0.00 0.00 0.00 0.00 0.00 0.00 0.00 0.00 0.00 0.00 0.00
0.00 0.00 0.00 0.00 0.01 0.01 0.01 0.00 0.00 0.00 0.00 0.00 0.00 0.00 0.00 0.00 0.00 0.00 0.00 0.00 0.00 0.03 0.02 0.03 0.07 0.04 0.00 0.00 0.00 0.00 0.00 0.00 0.00 0.00 0.00 0.00 0.00 0.00 0.00 0.00 0.00 0.00 0.00
0.00 0.00 0.00 0.00 0.00 0.01 0.01 0.00 0.00 0.00 0.00 0.00 0.00 0.00 0.00 0.00 0.00 0.00 0.00 0.00 0.00 0.00 0.00 0.00 0.00 0.00 0.00 0.00 0.00 0.00 0.00 0.00 0.00 0.00 0.00 0.00 0.00 0.00 0.00 0.00 0.00 0.00 0.00
0.00 0.00 0.00 0.00 0.00 0.01 0.00 0.00 0.00 0.01 0.00 0.00 0.00 0.00 0.00 0.00 0.00 0.00 0.00 0.00 0.00 0.00 0.00 0.00 0.00 0.00 0.00 0.00 0.00 0.00 0.00 0.00 0.00 0.00 0.00 0.00 0.00 0.01 0.01 0.02 0.01 0.00 0.00
0.00 0.00 0.00 0.00 0.00 0.00 0.00 0.00 0.00 0.00 0.01 0.00 0.00 0.00 0.00 0.00 0.00 0.00 0.00 0.00 0.00 0.00 0.00 0.00 0.00 0.00 0.00 0.00 0.00 0.00 0.00 0.00 0.00 0.00 0.00 0.00 0.00 0.01 0.00 0.00 0.01 0.03 0.03
0.00 0.00 0.00 0.00 0.00 0.00 0.00 0.00 0.00 0.00 0.00 0.00 0.00 0.00 0.00 0.00 0.00 0.00 0.00 0.00 0.00 0.00 0.00 0.00 0.00 0.00 0.00 0.00 0.00 0.00 0.00 0.00 0.00 0.00 0.00 0.00 0.00 0.00 0.00 0.00 0.01 0.00 0.01
0.00 0.00 0.00 0.00 0.00 0.00 0.00 0.00 0.00 0.00 0.00 0.01 0.01 0.00 0.00 0.00 0.00 0.00 0.00 0.00 0.00 0.00 0.00 0.00 0.00 0.00 0.00 0.00 0.00 0.00 0.00 0.00 0.00 0.00 0.00 0.00 0.00 0.00 0.00 0.00 0.00 0.00 0.00
0.00 0.00 0.00 0.00 0.00 0.00 0.00 0.00 0.00 0.00 0.01 0.01 0.01 0.00 0.00 0.00 0.00 0.00 0.00 0.00 0.00 0.00 0.00 0.00 0.00 0.00 0.00 0.00 0.00 0.00 0.00 0.00 0.00 0.00 0.00 0.00 0.00 0.00 0.01 0.01 0.00 0.00 0.00
0.00 0.00 0.00 0.00 0.00 0.00 0.00 0.00 0.00 0.00 0.00 0.01 0.00 0.00 0.00 0.00 0.00 0.00 0.00 0.00 0.00 0.00 0.00 0.00 0.00 0.00 0.00 0.00 0.00 0.00 0.00 0.00 0.00 0.00 0.00 0.00 0.00 0.01 0.01 0.00 0.00 0.00 0.00
0.00 0.00 0.00 0.00 0.00 0.00 0.00 0.00 0.00 0.00 0.00 0.00 0.00 0.00 0.00 0.00 0.00 0.00 0.00 0.00 0.00 0.00 0.01 0.01 0.00 0.00 0.00 0.00 0.00 0.00 0.00 0.00 0.00 0.00 0.00 0.00 0.00 0.00 0.00 0.00 0.00 0.00 0.00
0.00 0.00 0.00 0.00 0.00 0.00 0.00 0.00 0.00 0.00 0.00 0.00 0.00 0.00 0.00 0.00 0.00 0.00 0.00 0.00 0.00 0.00 0.01 0.00 0.00 0.00 0.00 0.00 0.00 0.00 0.00 0.00 0.00 0.00 0.00 0.00 0.00 0.00 0.00 0.00 0.00 0.00 0.00
0.00 0.00 0.00 0.00 0.00 0.00 0.00 0.00 0.00 0.00 0.00 0.00 0.00 0.00 0.00 0.00 0.00 0.00 0.00 0.00 0.00 0.00 0.00 0.00 0.00 0.00 0.00 0.00 0.00 0.00 0.00 0.00 0.00 0.00 0.00 0.00 0.00 0.00 0.00 0.00 0.00 0.00 0.00
0.00 0.00 0.00 0.00 0.00 0.00 0.00 0.00 0.00 0.00 0.00 0.00 0.00 0.00 0.00 0.00 0.00 0.00 0.00 0.00 0.00 0.00 0.00 0.00 0.00 0.00 0.00 0.00 0.00 0.00 0.00 0.00 0.00 0.00 0.00 0.00 0.00 0.00 0.00 0.00 0.00 0.00 0.00
0.00 0.00 0.00 0.01 0.03 0.01 0.01 0.01 0.00 0.00 0.00 0.00 0.00 0.00 0.00 0.00 0.00 0.00 0.00 0.00 0.00 0.00 0.00 0.00 0.00 0.00 0.00 0.00 0.00 0.00 0.00 0.00 0.00 0.00 0.00 0.00 0.00 0.00 0.00 0.00 0.00 0.00 0.00
0.00 0.00 0.00 0.01 0.02 0.01 0.00 0.02 0.01 0.00 0.00 0.00 0.00 0.00 0.00 0.00 0.00 0.00 0.00 0.00 0.00 0.00 0.00 0.00 0.00 0.00 0.00 0.00 0.00 0.00 0.00 0.00 0.00 0.00 0.00 0.00 0.00 0.00 0.00 0.00 0.00 0.00 0.00
0.00 0.00 0.00 0.00 0.01 0.00 0.00 0.01 0.01 0.01 0.00 0.00 0.00 0.00 0.00 0.00 0.00 0.00 0.00 0.00 0.00 0.00 0.00 0.00 0.00 0.00 0.00 0.00 0.00 0.00 0.00 0.00 0.00 0.00 0.00 0.00 0.00 0.00 0.00 0.00 0.00 0.00 0.00
0.00 0.00 0.00 0.00 0.00 0.00 0.00 0.00 0.00 0.00 0.00 0.00 0.00 0.00 0.00 0.00 0.00 0.00 0.00 0.00 0.00 0.00 0.00 0.00 0.00 0.00 0.00 0.00 0.00 0.00 0.00 0.00 0.00 0.00 0.00 0.00 0.00 0.00 0.00 0.00 0.00 0.00 0.00
0.00 0.00 0.00 0.00 0.00 0.00 0.00 0.01 0.05 0.05 0.04 0.01 0.00 0.00 0.01 0.01 0.00 0.00 0.00 0.00 0.00 0.00 0.00 0.00 0.00 0.00 0.00 0.00 0.00 0.00 0.00 0.00 0.00 0.00 0.00 0.00 0.00 0.00 0.00 0.00 0.00 0.00 0.00
0.00 0.00 0.00 0.00 0.00 0.00 0.00 0.01 0.02 0.00 0.00 0.00 0.01 0.02 0.03 0.02 0.01 0.00 0.00 0.00 0.00 0.00 0.00 0.00 0.00 0.00 0.00 0.00 0.00 0.00 0.00 0.00 0.00 0.00 0.00 0.00 0.00 0.00 0.00 0.00 0.00 0.00 0.00
0.00 0.00 0.00 0.00 0.00 0.00 0.00 0.00 0.00 0.00 0.01 0.01 0.01 0.05 0.02 0.05 0.05 0.02 0.01 0.00 0.00 0.00 0.00 0.00 0.00 0.00 0.00 0.00 0.00 0.00 0.00 0.00 0.00 0.00 0.00 0.00 0.00 0.00 0.00 0.00 0.00 0.00 0.00
0.00 0.00 0.00 0.00 0.00 0.00 0.00 0.00 0.00 0.00 0.00 0.00 0.02 0.01 0.00 0.03 0.05 0.03 0.04 0.05 0.00 0.00 0.00 0.00 0.00 0.00 0.00 0.00 0.00 0.00 0.00 0.00 0.00 0.00 0.00 0.00 0.00 0.00 0.00 0.00 0.00 0.00 0.00
0.00 0.00 0.00 0.00 0.00 0.00 0.00 0.00 0.00 0.00 0.00 0.00 0.00 0.00 0.00 0.01 0.04 0.03 0.04 0.12 0.04 0.00 0.00 0.00 0.00 0.00 0.00 0.00 0.00 0.00 0.00 0.00 0.00 0.00 0.00 0.00 0.00 0.00 0.00 0.00 0.00 0.00 0.00
0.00 0.00 0.00 0.00 0.00 0.00 0.00 0.00 0.00 0.00 0.00 0.00 0.00 0.00 0.01 0.01 0.05 0.06 0.03 0.09 0.11 0.05 0.02 0.03 0.01 0.00 0.00 0.00 0.00 0.00 0.00 0.00 0.00 0.00 0.00 0.00 0.00 0.00 0.00 0.00 0.00 0.00 0.00
0.00 0.00 0.00 0.00 0.00 0.00 0.00 0.00 0.00 0.00 0.00 0.00 0.00 0.00 0.00 0.02 0.03 0.04 0.03 0.05 0.06 0.07 0.08 0.06 0.03 0.02 0.01 0.00 0.00 0.00 0.00 0.00 0.00 0.00 0.00 0.00 0.00 0.00 0.00 0.00 0.00 0.00 0.00
0.00 0.00 0.00 0.00 0.00 0.00 0.00 0.00 0.00 0.00 0.00 0.00 0.00 0.01 0.01 0.01 0.02 0.03 0.03 0.03 0.05 0.04 0.05 0.06 0.05 0.03 0.02 0.01 0.00 0.00 0.00 0.00 0.00 0.00 0.00 0.00 0.00 0.00 0.00 0.00 0.00 0.00 0.00
MSLP
1014.05 1014.05 1014.28 1014.60 1014.98 1015.42 1015.63 1015.91 1016.23 1016.57 1016.87 1017.33 1017.63 1017.85 1018.09 1018.28 1018.49 1018.61 1018.71 1018.80 1018.75 1018.84 1018.86 1018.90 1019.09 1019.16 1019.37 1019.56 1019.87 1020.05 1020.10 1020.22 1020.37 1020.44 1020.32 1020.30 1020.30 1020.28 1020.34 1020.42 1020.43 1020.15 1020.22
1013.66 1013.96 1014.34 1014.73 1015.07 1015.51 1015.79 1016.07 1016.42 1016.76 1017.05 1017.52 1017.89 1018.07 1018.31 1018.48 1018.63 1018.77 1018.85 1018.93 1018.92 1018.87 1018.97 1019.08 1019.32 1019.38 1019.69 1019.93 1020.17 1020.28 1020.42 1020.55 1020.60 1020.61 1020.64 1020.66 1020.55 1020.51 1020.62 1020.66 1020.62 1020.43 1020.47
1013.71 1013.98 1014.38 1014.81 1015.17 1015.56 1015.95 1016.28 1016.64 1016.94 1017.23 1017.69 1017.92 1018.22 1018.54 1018.72 1018.83 1018.92 1019.04 1019.11 1019.16 1019.22 1019.06 1019.41 1019.68 1019.76 1020.08 1020.29 1020.42 1020.54 1020.64 1020.78 1020.87 1020.87 1020.82 1020.69 1020.65 1020.75 1020.77 1020.77 1020.66 1020.55 1020.58
1013.76 1014.07 1014.33 1014.78 1015.21 1015.66 1016.05 1016.36 1016.70 1017.03 1017.37 1017.72 1017.93 1018.22 1018.70 1018.94 1019.09 1019.17 1019.26 1019.27 1019.41 1019.58 1019.77 1019.95 1020.05 1020.18 1020.39 1020.53 1020.65 1020.77 1020.84 1020.90 1020.96 1021.03 1020.84 1020.83 1020.79 1020.86 1020.85 1020.83 1020.75 1020.72 1020.71
1013.86 1014.18 1014.47 1014.97 1015.33 1015.76 1016.20 1016.52 1016.74 1017.07 1017.45 1017.80 1018.09 1018.43 1018.90 1019.13 1019.30 1019.40 1019.49 1019.62 1019.62 1019.90 1020.10 1020.25 1020.35 1020.49 1020.61 1020.71 1020.86 1020.91 1020.96 1021.02 1021.06 1021.05 1021.11 1021.17 1021.03 1020.91 1020.89 1020.83 1020.86 1020.74 1020.73
1014.26 1014.44 1014.71 1015.08 1015.54 1015.89 1016.32 1016.72 1016.90 1017.17 1017.52 1017.88 1018.20 1018.63 1019.02 1019.26 1019.48 1019.67 1019.81 1019.98 1020.13 1020.28 1020.34 1020.46 1020.61 1020.74 1020.87 1020.91 1021.02 1021.13 1021.10 1021.18 1021.23 1021.18 1021.35 1021.38 1021.21 1021.07 1021.06 1021.09 1020.92 1020.79 1020.68
1014.58 1014.73 1014.89 1015.27 1015.70 1016.11 1016.47 1016.84 1017.06 1017.34 1017.63 1018.03 1018.33 1018.67 1019.05 1019.35 1019.62 1019.95 1020.16 1020.25 1020.35 1020.45 1020.51 1020.68 1020.79 1020.89 1021.02 1021.11 1021.21 1021.31 1021.34 1021.35 1021.15 1021.36 1021.41 1021.41 1021.28 1021.29 1021.26 1021.26 1021.16 1021.10 1021.04
1014.85 1015.06 1015.14 1015.59 1015.98 1016.32 1016.53 1016.85 1017.10 1017.34 1017.56 1017.95 1018.32 1018.69 1019.08 1019.41 1019.74 1020.07 1020.31 1020.44 1020.50 1020.56 1020.63 1020.73 1020.92 1021.01 1021.10 1021.24 1021.32 1021.42 1021.52 1021.57 1021.43 1021.49 1021.64 1021.57 1021.50 1021.42 1021.46 1021.48 1021.56 1021.51 1021.51
1014.99 1015.28 1015.49 1015.76 1016.21 1016.54 1016.71 1016.90 1017.15 1017.41 1017.61 1017.89 1018.26 1018.58 1019.00 1019.43 1019.76 1020.08 1020.35 1020.46 1020.60 1020.70 1020.78 1020.92 1021.00 1021.22 1021.31 1021.36 1021.46 1021.53 1021.70 1021.77 1021.55 1021.64 1021.66 1021.66 1021.60 1021.49 1021.61 1021.70 1021.78 1021.93 1021.94
1015.11 1015.31 1015.66 1015.97 1016.24 1016.56 1016.71 1016.97 1017.18 1017.39 1017.72 1017.94 1018.36 1018.60 1018.98 1019.37 1019.77 1020.01 1020.25 1020.46 1020.69 1020.80 1020.89 1020.96 1021.09 1021.27 1021.48 1021.60 1021.71 1021.86 1021.95 1022.05 1021.91 1021.95 1021.85 1021.72 1021.72 1021.72 1021.83 1022.04 1022.10 1022.17 1022.33
1015.23 1015.45 1015.70 1015.97 1016.24 1016.56 1016.78 1016.95 1017.23 1017.41 1017.78 1018.12 1018.42 1018.81 1019.11 1019.28 1019.52 1019.85 1020.14 1020.46 1020.68 1020.84 1021.01 1021.11 1021.33 1021.61 1021.79 1022.01 1022.08 1022.16 1022.11 1022.07 1022.01 1022.03 1021.92 1021.93 1021.91 1022.03 1022.21 1022.35 1022.55 1022.56 1022.53
1015.14 1015.45 1015.73 1015.94 1016.19 1016.54 1016.77 1016.97 1017.17 1017.31 1017.68 1017.96 1018.30 1018.71 1019.02 1019.28 1019.45 1019.72 1020.06 1020.40 1020.60 1020.81 1020.94 1021.15 1021.50 1021.82 1021.99 1022.11 1022.27 1022.39 1022.23 1022.33 1022.24 1022.12 1022.02 1022.15 1022.22 1022.33 1022.57 1022.53 1022.95 1023.01 1023.04
1015.05 1015.24 1015.54 1015.86 1016.13 1016.49 1016.59 1016.84 1017.18 1017.37 1017.62 1017.88 1018.24 1018.57 1018.93 1019.32 1019.54 1019.79 1020.07 1020.35 1020.59 1020.90 1021.04 1021.25 1021.57 1021.80 1021.97 1022.12 1022.24 1022.23 1022.37 1022.39 1022.34 1022.29 1022.18 1022.28 1022.46 1022.58 1022.80 1022.88 1023.17 1023.37 1023.31
1014.92 1014.98 1015.29 1015.55 1015.89 1016.26 1016.49 1016.70 1016.94 1017.31 1017.59 1017.82 1018.02 1018.37 1018.73 1019.10 1019.45 1019.64 1019.89 1020.25 1020.47 1020.72 1020.98 1021.22 1021.48 1021.80 1022.07 1022.23 1022.23 1022.33 1022.46 1022.51 1022.56 1022.53 1022.45 1022.44 1022.61 1022.93 1023.10 1023.19 1023.45 1023.57 1023.59
1014.77 1014.71 1014.89 1015.19 1015.32 1015.73 1016.24 1016.66 1016.86 1016.95 1017.24 1017.53 1017.85 1018.22 1018.54 1018.84 1019.09 1019.42 1019.65 1020.05 1020.35 1020.72 1020.92 1021.23 1021.47 1021.68 1021.91 1022.16 1022.40 1022.46 1022.58 1022.60 1022.67 1022.87 1022.73 1022.90 1022.91 1023.11 1023.29 1023.32 1023.55 1023.71 1023.84
1014.34 1014.30 1014.66 1014.82 1014.92 1015.24 1015.71 1016.16 1016.37 1016.62 1016.75 1017.11 1017.46 1017.88 1018.29 1018.48 1018.71 1019.07 1019.44 1019.84 1020.31 1020.66 1020.92 1021.20 1021.45 1021.70 1021.90 1022.16 1022.40 1022.63 1022.78 1022.77 1022.91 1023.12 1023.04 1023.20 1023.28 1023.42 1023.61 1023.64 1023.76 1023.73 1023.92
1013.72 1013.79 1013.88 1014.27 1014.42 1014.88 1015.09 1015.45 1015.84 1016.26 1016.33 1016.52 1016.90 1017.41 1017.81 1018.16 1018.35 1018.59 1019.01 1019.47 1019.85 1020.36 1020.74 1021.26 1021.60 1021.90 1022.03 1022.23 1022.42 1022.67 1022.83 1022.92 1023.01 1023.13 1023.50 1023.51 1023.60 1023.76 1023.77 1023.83 1023.92 1023.96 1024.02
1013.55 1013.44 1013.26 1013.58 1013.91 1014.28 1014.51 1014.68 1015.22 1015.50 1015.74 1015.85 1016.29 1016.78 1017.18 1017.60 1018.01 1018.33 1018.67 1018.94 1019.42 1020.13 1020.61 1021.07 1021.38 1021.76 1021.92 1022.16 1022.45 1022.75 1022.89 1023.04 1023.19 1023.24 1023.49 1023.66 1023.81 1023.88 1023.98 1024.07 1024.23 1024.28 1024.28
1012.95 1013.08 1013.11 1013.15 1013.16 1013.50 1013.76 1014.04 1014.48 1014.90 1015.30 1015.38 1015.63 1015.97 1016.42 1016.91 1017.39 1017.80 1018.18 1018.52 1019.05 1019.71 1020.26 1020.76 1021.28 1021.36 1021.81 1022.13 1022.33 1022.78 1022.96 1023.03 1023.28 1023.45 1023.52 1023.80 1023.99 1024.10 1024.19 1024.30 1024.53 1024.66 1024.55
1012.42 1012.49 1012.61 1012.77 1012.78 1012.90 1013.27 1013.72 1014.20 1014.58 1014.65 1014.73 1014.95 1015.04 1015.56 1016.03 1016.50 1017.10 1017.64 1018.08 1018.71 1019.26 1019.84 1020.37 1020.81 1021.35 1021.56 1021.88 1022.26 1022.83 1023.04 1023.16 1023.34 1023.42 1023.45 1023.93 1024.12 1024.27 1024.26 1024.38 1024.65 1024.82 1024.86
1012.00 1012.07 1012.12 1012.15 1012.14 1012.35 1012.59 1013.04 1013.45 1013.63 1013.82 1014.10 1014.19 1014.34 1014.65 1015.10 1015.73 1016.22 1016.81 1017.36 1017.89 1018.43 1018.99 1019.64 1020.41 1021.13 1021.67 1021.89 1022.39 1022.92 1023.09 1023.21 1023.27 1023.43 1023.62 1023.56 1023.99 1024.22 1024.32 1024.43 1024.54 1024.74 1024.87
1012.01 1011.97 1011.86 1011.87 1011.83 1011.78 1011.85 1012.01 1012.30 1012.66 1012.95 1013.08 1013.42 1013.72 1013.81 1014.28 1014.68 1015.10 1015.75 1016.55 1017.27 1017.88 1018.46 1019.05 1019.51 1020.44 1021.22 1021.48 1021.49 1022.31 1022.67 1023.05 1023.17 1023.23 1023.41 1023.47 1023.64 1024.00 1024.18 1024.37 1024.54 1024.64 1024.84
1012.03 1011.87 1011.71 1011.46 1011.42 1011.39 1011.37 1011.54 1011.99 1012.39 1012.79 1012.86 1013.06 1013.18 1013.03 1013.21 1013.59 1013.91 1014.59 1015.47 1016.33 1017.01 1017.51 1018.10 1018.53 1019.03 1020.03 1020.87 1020.77 1020.91 1021.96 1021.77 1022.44 1023.08 1023.18 1023.27 1023.46 1023.72 1023.92 1024.23 1024.53 1024.82 1024.87
1012.11 1011.80 1011.52 1011.30 1011.18 1011.02 1011.02 1011.12 1011.33 1011.40 1011.60 1011.64 1011.74 1012.11 1012.33 1012.42 1012.83 1013.43 1013.75 1014.54 1015.26 1016.05 1016.58 1017.08 1017.77 1018.15 1018.89 1019.70 1021.00 1021.01 1020.87 1020.95 1021.69 1022.65 1023.12 1023.21 1023.47 1023.57 1023.79 1024.05 1024.31 1024.77 1024.98
1012.12 1011.76 1011.48 1011.25 1011.00 1010.74 1010.87 1010.90 1010.61 1010.47 1010.44 1010.56 1011.11 1011.49 1011.80 1012.10 1012.29 1012.65 1012.98 1013.58 1014.20 1014.87 1015.57 1016.35 1017.10 1017.64 1017.85 1018.51 1018.99 1020.29 1021.01 1021.10 1021.17 1021.38 1022.19 1022.90 1023.44 1023.62 1023.89 1024.02 1024.23 1024.64 1025.05
1012.04 1011.60 1011.30 1011.15 1010.89 1010.64 1010.58 1010.69 1010.66 1010.44 1010.37 1010.52 1010.62 1010.75 1010.92 1011.31 1011.66 1012.03 1012.54 1012.99 1013.31 1013.96 1014.56 1015.09 1015.80 1016.74 1017.35 1017.73 1018.43 1018.78 1019.22 1020.11 1020.57 1020.82 1021.38 1022.05 1022.33 1022.75 1023.16 1023.91 1024.28 1024.46 1024.86
Thickness
5764 5766 5763 5760 5758 5755 5754 5752 5750 5748 5746 5743 5740 5738 5735 5734 5732 5732 5731 5730 5730 5728 5728 5728 5726 5726 5724 5723 5720 5717 5717 5716 5715 5714 5715 5715 5714 5714 5713 5712 5712 5713 5713
5766 5764 5761 5757 5755 5752 5750 5749 5746 5744 5742 5738 5735 5733 5731 5730 5728 5727 5726 5726 5725 5725 5724 5722 5720 5721 5719 5717 5714 5713 5711 5710 5710 5711 5711 5710 5710 5710 5708 5708 5707 5708 5707
5763 5761 5759 5755 5752 5749 5746 5744 5741 5739 5737 5733 5731 5728 5725 5724 5723 5722 5721 5720 5720 5720 5720 5717 5716 5715 5712 5711 5710 5709 5708 5707 5706 5706 5707 5707 5706 5705 5705 5704 5704 5705 5703
5760 5758 5756 5752 5749 5746 5743 5740 5737 5734 5731 5728 5726 5724 5720 5718 5717 5716 5715 5715 5714 5712 5712 5710 5709 5708 5706 5705 5704 5704 5704 5703 5703 5703 5703 5702 5702 5701 5701 5700 5701 5700 5699
5756 5754 5752 5748 5745 5743 5739 5736 5734 5732 5728 5725 5723 5720 5716 5714 5712 5712 5710 5709 5709 5708 5706 5705 5704 5702 5701 5700 5698 5699 5699 5699 5700 5699 5698 5697 5697 5697 5697 5697 5696 5697 5696
5749 5748 5747 5745 5741 5740 5736 5733 5731 5728 5725 5722 5719 5716 5712 5710 5708 5707 5706 5704 5703 5701 5701 5700 5698 5697 5696 5695 5694 5693 5694 5694 5695 5694 5692 5691 5692 5693 5692 5691 5692 5693 5693
5743 5743 5742 5740 5737 5735 5732 5730 5728 5725 5722 5718 5716 5713 5710 5707 5704 5701 5699 5698 5697 5696 5696 5694 5693 5692 5691 5690 5689 5688 5688 5689 5689 5687 5687 5686 5687 5687 5687 5687 5686 5686 5686
5737 5736 5735 5733 5730 5729 5728 5726 5724 5722 5718 5715 5712 5709 5706 5703 5700 5697 5695 5694 5693 5692 5691 5690 5688 5687 5686 5685 5685 5684 5683 5683 5683 5682 5681 5681 5681 5682 5680 5681 5679 5678 5678
5729 5728 5727 5726 5723 5721 5722 5721 5719 5717 5715 5712 5709 5706 5703 5699 5697 5694 5692 5691 5689 5687 5686 5685 5684 5682 5682 5681 5681 5681 5680 5680 5679 5677 5677 5676 5676 5677 5676 5674 5673 5671 5670
5725 5723 5720 5719 5717 5715 5716 5715 5714 5712 5710 5708 5705 5703 5700 5697 5693 5691 5690 5688 5685 5684 5682 5682 5680 5679 5677 5676 5676 5675 5675 5674 5672 5672 5672 5672 5670 5670 5669 5667 5665 5663 5662
5718 5717 5715 5714 5712 5710 5710 5709 5708 5707 5705 5702 5700 5697 5695 5693 5691 5689 5687 5684 5681 5680 5678 5677 5674 5673 5672 5670 5670 5669 5670 5668 5668 5667 5666 5665 5664 5663 5661 5659 5656 5655 5653
5710 5710 5711 5709 5708 5706 5705 5705 5703 5703 5700 5698 5696 5692 5691 5689 5687 5685 5683 5680 5678 5677 5675 5673 5670 5668 5667 5665 5663 5663 5662 5661 5660 5661 5660 5658 5656 5654 5651 5651 5646 5645 5644
5707 5708 5708 5706 5704 5702 5702 5700 5698 5697 5695 5693 5690 5688 5686 5683 5682 5680 5677 5675 5673 5671 5669 5668 5665 5663 5661 5659 5658 5658 5656 5655 5655 5654 5653 5651 5649 5647 5644 5642 5639 5636 5636
5704 5705 5705 5702 5701 5699 5697 5696 5695 5692 5690 5688 5686 5684 5682 5680 5677 5676 5673 5670 5668 5666 5665 5663 5660 5658 5655 5653 5653 5652 5650 5649 5647 5646 5645 5645 5642 5638 5636 5635 5631 5628 5627
5700 5702 5702 5700 5700 5697 5693 5690 5689 5689 5687 5684 5682 5681 5679 5676 5674 5672 5671 5667 5664 5661 5659 5657 5655 5653 5651 5649 5647 5646 5644 5643 5642 5638 5638 5636 5635 5631 5629 5627 5623 5621 5619
5699 5701 5698 5696 5696 5693 5693 5690 5688 5686 5685 5682 5680 5677 5676 5674 5672 5670 5667 5663 5658 5655 5653 5651 5649 5647 5646 5644 5642 5639 5637 5636 5634 5631 5631 5627 5626 5624 5620 5619 5616 5616 5612
5699 5699 5699 5695 5692 5691 5691 5689 5686 5683 5683 5681 5679 5676 5674 5672 5670 5668 5664 5660 5656 5652 5649 5645 5642 5640 5640 5638 5636 5633 5631 5629 5628 5626 5621 5618 5616 5615 5613 5611 5609 5608 5605
5692 5695 5698 5696 5692 5690 5689 5687 5683 5682 5681 5681 5677 5674 5672 5670 5666 5663 5660 5658 5653 5648 5644 5640 5638 5634 5634 5633 5629 5626 5624 5622 5620 5619 5615 5612 5609 5606 5605 5602 5599 5598 5597
5690 5691 5692 5693 5693 5690 5687 5684 5681 5679 5677 5677 5676 5674 5671 5668 5663 5660 5657 5654 5650 5645 5640 5637 5632 5632 5629 5626 5624 5619 5617 5616 5612 5611 5609 5605 5602 5599 5597 5595 5592 5589 5589
5687 5688 5689 5689 5689 5688 5683 5679 5676 5674 5675 5675 5675 5674 5670 5666 5663 5659 5654 5650 5645 5642 5637 5633 5630 5625 5624 5621 5619 5612 5610 5609 5606 5604 5604 5598 5595 5593 5591 5589 5585 5582 5580
5681 5682 5683 5685 5688 5686 5682 5676 5673 5673 5673 5671 5670 5670 5667 5664 5661 5658 5653 5648 5645 5642 5636 5632 5626 5620 5615 5614 5610 5604 5603 5602 5600 5598 5595 5594 5589 5586 5584 5582 5579 5576 5574
5673 5674 5676 5677 5678 5681 5680 5678 5676 5672 5672 5671 5667 5664 5664 5662 5660 5657 5653 5647 5641 5636 5632 5628 5625 5617 5611 5609 5611 5603 5604 5599 5594 5592 5590 5588 5585 5581 5578 5575 5572 5569 5566
5663 5665 5668 5670 5672 5673 5674 5673 5668 5665 5663 5661 5661 5660 5661 5659 5657 5654 5651 5646 5639 5634 5631 5626 5625 5621 5614 5606 5606 5609 5597 5606 5594 5585 5583 5581 5578 5575 5571 5568 5563 5559 5556
5652 5654 5658 5661 5663 5665 5666 5665 5663 5662 5660 5661 5661 5658 5655 5654 5651 5647 5648 5643 5638 5632 5630 5627 5621 5618 5613 5606 5595 5594 5596 5598 5596 5586 5575 5572 5568 5567 5563 5559 5555 5549 5546
5643 5646 5649 5652 5654 5656 5655 5656 5657 5660 5662 5660 5655 5651 5649 5646 5645 5643 5641 5639 5636 5631 5627 5622 5617 5613 5611 5607 5605 5591 5585 5583 5583 5586 5579 5567 5557 5554 5550 5548 5544 5539 5535
5635 5638 5640 5641 5644 5646 5645 5644 5644 5646 5646 5644 5644 5644 5643 5641 5638 5637 5633 5631 5631 5628 5625 5621 5616 5610 5605 5603 5597 5595 5592 5584 5580 5579 5574 5564 5563 5554 5547 5538 5532 5529 5524